TimeMST,TemperatureF,Dew PointF,Humidity,Sea Level PressureIn,VisibilityMPH,Wind Direction,Wind SpeedMPH,Gust SpeedMPH,PrecipitationIn,Events,Conditions,WindDirDegrees,DateUTC
12:15 AM,37.4,37.4,100,29.91,10.0,South,4.6,-,N/A,,Overcast,180,2012-12-01 07:15:00
12:35 AM,37.4,37.4,100,29.91,10.0,SSE,3.5,-,N/A,,Overcast,160,2012-12-01 07:35:00
12:55 AM,37.4,37.4,100,29.91,7.0,SE,5.8,-,N/A,Rain,Light Rain,130,2012-12-01 07:55:00
1:15 AM,37.4,37.4,100,29.91,10.0,SW,4.6,-,N/A,,Overcast,230,2012-12-01 08:15:00
1:35 AM,37.4,37.4,100,29.90,10.0,Calm,Calm,-,N/A,,Overcast,0,2012-12-01 08:35:00
1:55 AM,37.4,35.6,93,29.91,10.0,Calm,Calm,-,N/A,,Overcast,0,2012-12-01 08:55:00
2:15 AM,37.4,37.4,100,29.91,10.0,ESE,3.5,-,N/A,,Overcast,110,2012-12-01 09:15:00
2:35 AM,37.4,37.4,100,29.92,10.0,SSE,4.6,-,N/A,,Overcast,160,2012-12-01 09:35:00
2:55 AM,37.4,37.4,100,29.92,10.0,ESE,5.8,-,N/A,,Light Drizzle,120,2012-12-01 09:55:00
3:15 AM,37.4,37.4,100,29.92,10.0,SE,4.6,-,N/A,,Overcast,130,2012-12-01 10:15:00
3:35 AM,37.4,35.6,93,29.92,10.0,SSE,8.1,-,N/A,,Mostly Cloudy,150,2012-12-01 10:35:00
3:55 AM,37.4,35.6,93,29.93,10.0,SE,10.4,-,N/A,,Scattered Clouds,130,2012-12-01 10:55:00
4:15 AM,37.4,35.6,93,29.92,10.0,SE,8.1,-,N/A,,Scattered Clouds,140,2012-12-01 11:15:00
4:35 AM,37.4,35.6,93,29.93,10.0,SSE,8.1,-,N/A,,Mostly Cloudy,150,2012-12-01 11:35:00
4:55 AM,37.4,35.6,93,29.93,10.0,SSE,5.8,-,N/A,,Overcast,150,2012-12-01 11:55:00
5:15 AM,37.4,35.6,93,29.93,10.0,SSW,4.6,-,N/A,,Drizzle,200,2012-12-01 12:15:00
5:35 AM,35.6,35.6,100,29.93,10.0,SE,3.5,-,N/A,,Light Drizzle,130,2012-12-01 12:35:00
5:55 AM,35.6,35.6,100,29.94,10.0,South,8.1,-,N/A,Rain,Light Rain,170,2012-12-01 12:55:00
6:47 AM,37.4,37.4,100,29.93,7.0,SSE,4.6,-,N/A,Rain,Light Rain,150,2012-12-01 13:47:00
8:47 AM,35.6,35.6,100,29.94,10.0,Calm,Calm,-,N/A,,Mostly Cloudy,0,2012-12-01 15:47:00
9:47 AM,37.4,37.4,100,29.96,10.0,Calm,Calm,-,N/A,,Overcast,0,2012-12-01 16:47:00
10:47 AM,39.2,39.2,100,29.95,10.0,Calm,Calm,-,N/A,Rain,Light Rain,0,2012-12-01 17:47:00
11:48 AM,41.0,39.2,93,29.95,7.0,East,3.5,-,N/A,Rain,Light Rain,100,2012-12-01 18:48:00
12:48 PM,42.8,39.2,87,29.95,7.0,SE,5.8,-,N/A,Rain,Light Rain,140,2012-12-01 19:48:00
1:48 PM,42.8,39.2,87,29.93,10.0,ESE,8.1,-,N/A,,Overcast,120,2012-12-01 20:48:00
2:47 PM,42.8,39.2,87,29.94,10.0,SE,5.8,-,N/A,,Overcast,140,2012-12-01 21:47:00
3:47 PM,44.6,37.4,76,29.93,10.0,Calm,Calm,-,N/A,,Overcast,0,2012-12-01 22:47:00
4:49 PM,41.0,39.2,93,29.92,10.0,South,3.5,-,N/A,,Overcast,170,2012-12-01 23:49:00
5:47 PM,41.0,37.4,87,29.90,10.0,Calm,Calm,-,N/A,,Mostly Cloudy,0,2012-12-02 00:47:00
6:47 PM,39.2,37.4,93,29.92,10.0,Calm,Calm,-,N/A,,Overcast,0,2012-12-02 01:47:00
7:47 PM,39.2,37.4,93,29.91,6.0,Calm,Calm,-,N/A,Rain,Light Rain,0,2012-12-02 02:47:00
8:47 PM,39.2,37.4,93,29.92,5.0,NW,10.4,-,N/A,Rain,Light Rain,310,2012-12-02 03:47:00
9:47 PM,37.4,37.4,100,29.88,10.0,NW,6.9,-,N/A,,Overcast,310,2012-12-02 04:47:00
10:35 PM,37.4,37.4,100,29.88,10.0,NW,6.9,-,N/A,,Mostly Cloudy,310,2012-12-02 05:35:00
10:47 PM,37.4,37.4,100,29.87,10.0,WNW,5.8,-,N/A,,Overcast,300,2012-12-02 05:47:00
11:15 PM,37.4,35.6,93,29.86,10.0,NW,5.8,-,N/A,,Mostly Cloudy,310,2012-12-02 06:15:00
11:55 PM,37.4,35.6,93,29.86,10.0,NW,5.8,-,N/A,,Overcast,320,2012-12-02 06:55:00